AirNav   Air Wisconsin pilot careers
 
 881 users online  

2R9 Karnes County Airport
Kenedy, Texas, USA

GOING TO KENEDY?


FAA INFORMATION EFFECTIVE 11 OCTOBER 2018

Location

FAA Identifier: 2R9
Lat/Long: 28-49-29.9485N / 097-51-56.0460W
28-49.499142N / 097-51.934100W
28.8249857 / -97.8655683
(estimated)
Elevation: 288.7 ft. / 88.0 m (surveyed)
Variation: 05E (2010)
From city: 1 mile NW of KENEDY, TX
Time zone: UTC -5 (UTC -6 during Standard Time)
Zip code: 78119

Airport Operations

Airport use: Open to the public
Control tower: no
ARTCC: HOUSTON CENTER
FSS: SAN ANGELO FLIGHT SERVICE STATION
NOTAMs facility: SJT (NOTAM-D service available)
Attendance: MON-FRI DAYLIGHT HOURS
Wind indicator: lighted
Segmented circle: yes
Lights: MIRL RY 16/34 & TWY LGTS PRESET LOW INTST; TO INCR INTST ACTVT - CTAF.
Beacon: white-green (lighted land airport)
Operates sunset to sunrise.

Airport Communications

CTAF/UNICOM: 123.0
WX ASOS at NGT (18 nm SE): 353.675
  • APCH/DEP SERVICE PROVIDED BY HOUSTON ARTCC ON FREQS 134.6/322.5 (THREE RIVERS RCAG).

Nearby radio navigation aids

VOR radial/distance  VOR name  Freq  Var
THXr030/24.4THREE RIVERS VORTAC111.4008E
SSFr122/(39.9)STINSON VOR108.4009E

Airport Services

Fuel available: 100LL JET-A
Parking: tiedowns
Airframe service: MAJOR
Powerplant service: MAJOR

Runway Information

Runway 16/34

Dimensions: 3218 x 60 ft. / 981 x 18 m
Surface: asphalt, in fair condition
Weight bearing capacity: 
Single wheel: 11.0
Runway edge lights: medium intensity
Runway edge markings: MARKINGS FADED
RUNWAY 16  RUNWAY 34
Latitude: 28-49.760033N28-49.238250N
Longitude: 097-51.990067W097-51.878133W
Elevation: 288.7 ft.272.2 ft.
Gradient: 0.6%0.5% UP
Traffic pattern: rightleft
Runway heading: 164 magnetic, 169 true344 magnetic, 349 true
Markings: basic, in poor conditionbasic, in poor condition
Touchdown point: yes, no lightsyes, no lights
Obstructions: 34 ft. pole, 628 ft. from runway, 306 ft. left of centerline, 12:1 slope to clear
+6 FT DIRT ROAD 144 FT FM THLD.
31 ft. trees, 200 ft. from runway, 195 ft. left of centerline
+35 FT TREES 0-200 FT FM THLD AT 177-200 FT L, 5 FT FENCE 0-200 FT FM THLD & 105 FT-200 FT LEFT.

Airport Ownership and Management from official FAA records

Ownership: Publicly-owned
Owner: CITY OF KENEDY
303 W.MAIN
KENEDY, TX 78119
Phone 830-583-2230
Manager: RON HYDE
P.O. BOX 569
KENEDY, TX 78119
Phone (830) 583-5930

Airport Operational Statistics

Aircraft based on the field: 12
Single engine airplanes: 10
Multi engine airplanes: 2
    
Aircraft operations: avg 57/week *
67% local general aviation
33% transient general aviation
* for 12-month period ending 26 January 2017

Additional Remarks

DEER ON & INVOF ARPT (SEASONAL).
ACFT AIRFRAME & POWER PLANT REPAIRS ON CALL 830-299-2295.
SOUTH TWY CLSD.

Instrument Procedures

NOTE: All procedures below are presented as PDF files. If you need a reader for these files, you should download the free Adobe Reader.

NOT FOR NAVIGATION. Please procure official charts for flight.
FAA instrument procedures published for use from 11 October 2018 at 0901Z to 8 November 2018 at 0900Z.

 
IAPs - Instrument Approach Procedures
RNAV (GPS) RWY 16 **CHANGED**   download (167KB)
RNAV (GPS) RWY 34 **CHANGED**   download (161KB)
VOR/DME-A **CHANGED**   download (139KB)
NOTE: Special Take-Off Minimums/Departure Procedures apply   download (154KB)

Other nearby airports with instrument procedures:

KNGT - Goliad Naval Outlying Field (18 nm SE)
KBEA - Beeville Municipal Airport (28 nm S)
TX2 - Chase Field Industrial Airport (30 nm S)
8T6 - Live Oak County Airport (31 nm SW)
KPEZ - Pleasanton Municipal Airport (35 nm W)
 
Loc | Ops | Rwys | IFR | FBO | Links
Com | Nav | Svcs | Stats | Notes


 
Area around 2R9 (Karnes County Airport)
 
Road maps at: MapQuest Bing Google
 
Aerial photo
WARNING: Photo may not be current or correct
Aerial photo of 2R9 (Karnes County Airport)
Photo by Glenn Maleske
Taken late January 2010

Do you have a better or more recent aerial photo of Karnes County Airport that you would like to share? If so, please send us your photo.

 
Sectional chart

 
Airport distance calculator
Flying to Karnes County Airport? Find the distance to fly.

From to 2R9

Sunrise and sunset
Times for 19-Oct-2018
 Local
(UTC-5)
 Zulu
(UTC)
Morning civil twilight07:1212:12
Sunrise07:3612:36
Sunset18:5723:57
Evening civil twilight19:2100:21

Current date and time
Zulu (UTC)  20-Oct-2018 01:05:13
Local (UTC-5)  19-Oct-2018 20:05:13
 
METAR
KBEA 
28nm S 
200055Z AUTO 36007KT 2 1/2SM +RA BKN007 OVC011 21/20 A3006 RMK AO2 P0003 T02060201
KPEZ 
35nm W 
200055Z AUTO 05004KT 10SM OVC007 19/17 A3011 RMK AO2 T01870174
KSSF 
44nm NW 
200053Z 01008KT 10SM OVC015 19/16 A3009 RMK AO2 SLP185 T01940161
KRND 
47nm NW 
200056Z AUTO 36009KT 10SM OVC013 17/16 A3012 RMK AO2 SLP197 T01740159
KT20 
47nm NE 
200055Z AUTO 01006KT 10SM OVC007 18/17 A3012 RMK AO2 T01800174
KVCT 
49nm E 
200051Z 36005KT 9SM SCT024 BKN029 OVC100 23/22 A3006 RMK AO2 SLP178 T02330222
KSKF 
49nm NW 
200056Z 02009KT 10SM SCT008 BKN017 18/17 A3009 RMK AO2A SLP186 T01830171 $
TAF
KSSF 
44nm NW 
191732Z 1918/2018 02007KT P6SM VCSH OVC006 TEMPO 1918/1922 2SM -RA BR FM201500 01010KT P6SM SCT006 OVC010
KRND 
47nm NW 
191700Z 1917/2023 02009KT 9999 VCSH OVC004 QNH3010INS BECMG 1919/1920 02009KT 4800 -SHRA BR OVC008 QNH3007INS BECMG 2000/2001 02009KT 8000 -SHRA OVC006 QNH3005INS TX18/1920Z TN15/2011Z LAST NO AMDS AFT 2000 NEXT 2209
KVCT 
49nm E 
191735Z 1918/2018 05008KT P6SM VCSH SCT008 OVC018 TEMPO 1918/1922 4SM -SHRA BR OVC008 FM192200 02010KT P6SM VCSH SCT008 BKN020 OVC035 TEMPO 1922/2002 4SM -RA BR OVC008 FM200400 02008KT 4SM BR VCSH OVC004 PROB30 2006/2012 6SM -RA BR OVC011
KSKF 
49nm NW 
191800Z 1918/2024 02006KT 9000 -RA BR OVC005 QNH3009INS BECMG 1920/1921 02007KT 9999 VCSH OVC007 QNH3007INS BECMG 2001/2002 02006KT 8000 -RA BR OVC006 QNH3009INS BECMG 2015/2016 02012G18KT 8000 -SHRA FEW008 OVC012 QNH3014INS BECMG 2021/2022 02015G20KT 9999 NSW SCT016 BKN025 QNH3010INS TX20/1920Z TN17/2011Z
NOTAMs
Click for the latest NOTAMs
NOTAMs are issued by the DoD/FAA and will open in a separate window not controlled by AirNav.

 

 
 

FBO, Fuel Providers, and Aircraft Ground Support

  
 Business Name 
 
 Contact 
 
 Services / Description 
 
Fuel Prices
 
Comments
  
Stetson Aviation, Inc. 830-583-9884
830-583-5930
[web site]
[email]
Aviation fuel, Aircraft ground handling, Aircraft parking (ramp or tiedown), Hangar leasing / sales, GPU / Power cart, Passenger terminal and lounge, ...

More info about Stetson Aviation, Inc.
Avfuel
100LL Jet A
SS $4.65 $3.69 
 Updated 26-Aug-2018
 
   2 read write
SS=Self service
Update Fuel Prices
 

Where to Eat: Catering, Restaurants, Food shops

  
 Business Name 
 
 Contact 
 
 Services / Description 
 
Distance
 
Comments
  
Barth's Restaurant 830-583-2468
no information available

If you are affiliated with Barth's Restaurant and would like to show here your services, contact info, web link, logo, and more, click here
0.2 miles  
   write
 

Would you like to see your business listed on this page?

 If your business provides an interesting product or service to pilots, flight crews, aircraft, or users of the Karnes County Airport, you should consider listing it here.  To start the listing process, click on the button below
 
Add a business
 

Other Pages about Karnes County Airport

Update a link
 
Copyright © AirNav, LLC. All rights reserved. Privacy Policy  Contact